Погода в Кировском

Россия / Тюменская область     56°43′03″N   65°44′18″E
темп.,
°C
ветер,
м/с
пор.,
м/с
влажн.,
%
обл.,
%
осадки,
мм/ч
давл.,
гПа
погр.,
м
13 апреля, вт
вт1323:00+5ссз39865 0.0 1037157
02:00+3ссз34840 0.0 103855
05:00+2сз22870 0.0 104027
08:00+5сз23800 0.0 1041134
11:00+10з34615 0.0 1040740
14:00+12з344712 0.0 10391076
17:00+13зюз45515 0.0 1038960
20:00+8зюз36735 0.0 103790
14 апреля, ср
ср1423:00+7юз4108220 0.0 1036189
02:00+7юз51490100 0.0 1033329
05:00+7юз61488100 0.0 1032383
08:00+8зюз51288100 0.0 1031403
11:00+13з587233 0.0 1030594
14:00+17з57607 0.0 10281030
17:00+18з47617 0.0 10271257
20:00+12зюз377829 0.0 1027115
15 апреля, чт
чт1523:00+10з388443 0.0 1027119
02:00+9зсз34859 0.0 102648
05:00+7з34855 0.0 102660
08:00+10зюз37775 0.0 1025185
11:00+16зюз47555 0.0 1023687
14:00+19зюз57525 0.0 10211190
17:00+19зюз58555 0.0 10191382
20:00+14юз38735 0.0 1018126
16 апреля, пт
пт1623:00+11зюз4107852 0.0 1017199
02:00+9зюз31074100 0.0 1015179
05:00+8з31080100 0.0 1015173
08:00+9ссз5780100 0.0 1015483
11:00+4ссв6109099 0.4 1017467
14:00+5ссв5884100 0.1 1020829
17:00+7ссв5856100 0.2 10201328
20:00+4ссв611585 0.0 1022560
17 апреля, сб
сб1723:00+1ссв410635 0.0 1023380
02:00−1ссв37670 0.0 1024266
05:00−2ссв25720 0.0 1024172
08:000ссв11570 0.0 1024444
11:00+4зсз233557 0.0 10221237
14:00+6зсз3632100 0.0 10202235
17:00+4сз476573 0.3 1020944
20:00+2ссв48677 0.3 1020331